DW4993 Weather Reports


Display with metric or nautical units.
time (UTC)temp
F
wind
direction
speed
MPH
gust
MPH
rain 1hr
in
rain 24hr
in
rain mn
in
humidity
%
barometer
mb
20260905083305 48 10 2.0 8.0 0.00 0.00 0.00 84 1025.3
20260905082806 48 349 4.0 8.0 0.00 0.00 0.00 84 1025.4
20260905082307 48 40 3.0 8.0 0.00 0.00 0.00 84 1025.5
20260905081305 47 341 3.0 8.0 0.00 0.00 0.00 85 1025.2
20260905080806 47 13 2.0 9.0 0.00 0.00 0.00 85 1024.9
20260905080304 47 336 2.0 10.0 0.00 0.00 0.00 85 1025.1
20260905075306 48 33 4.0 9.0 0.00 0.00 0.00 84 1025.0
20260905074805 48 2 3.0 9.0 0.00 0.00 0.00 84 1025.1
20260905074305 48 353 2.0 9.0 0.00 0.00 0.00 84 1025.1
20260905073804 48 346 3.0 9.0 0.00 0.00 0.00 83 1025.0
20260905073305 49 47 2.0 9.0 0.00 0.00 0.00 83 1024.7
20260905072806 49 31 2.0 12.0 0.00 0.00 0.00 83 1024.6
20260905072306 49 64 4.0 12.0 0.00 0.00 0.00 83 1025.0
20260905071804 49 21 2.0 9.0 0.00 0.00 0.00 84 1025.1
20260905071305 49 317 5.0 12.0 0.00 0.00 0.00 84 1025.2
20260905070806 49 29 1.0 8.0 0.00 0.00 0.00 85 1024.8
20260905070305 49 36 3.0 8.0 0.00 0.00 0.00 84 1024.8
20260905065805 49 342 2.0 9.0 0.00 0.00 0.00 84 1024.9
20260905065306 49 313 3.0 10.0 0.00 0.00 0.00 84 1025.0
20260905063304 50 17 3.0 9.0 0.00 0.00 0.00 86 1024.5
20260905062805 50 26 3.0 9.0 0.00 0.00 0.00 86 1024.9
20260905061805 51 53 3.0 8.0 0.00 0.00 0.00 85 1024.9
20260905061305 51 342 2.0 9.0 0.00 0.00 0.00 85 1025.0
20260905060305 51 49 3.0 13.0 0.00 0.00 0.00 84 1024.5
20260905055805 50 21 3.0 13.0 0.00 0.00 0.00 85 1024.2
20260905055306 50 125 3.0 9.0 0.00 0.00 0.00 85 1024.2
20260905054305 50 29 2.0 6.0 0.00 0.00 0.00 86 1024.2
20260905053305 50 38 1.0 7.0 0.00 0.00 0.00 86 1024.4
20260905052306 49 24 2.0 8.0 0.00 0.00 0.00 87 1024.6
20260905051805 49 351 2.0 6.0 0.00 0.00 0.00 87 1024.6
20260905050805 49 49 0.0 2.0 0.00 0.00 0.00 87 1024.7
20260905050305 49 27 1.0 3.0 0.00 0.00 0.00 87 1024.6
20260905045804 49 32 2.0 6.0 0.00 0.00 0.00 87 1024.6
20260905045306 49 31 1.0 5.0 0.00 0.00 0.00 86 1024.4
20260905044304 50 343 2.0 8.0 0.00 0.00 0.00 86 1024.3
20260905043805 50 27 1.0 8.0 0.00 0.00 0.00 85 1024.4
20260905043306 50 5 2.0 7.0 0.00 0.00 0.00 85 1024.4
20260905042804 50 359 3.0 7.0 0.00 0.00 0.00 84 1024.3
20260905042307 51 353 2.0 7.0 0.00 0.00 0.00 84 1024.0
20260905041805 51 42 3.0 7.0 0.00 0.00 0.00 83 1023.9
20260905040805 51 332 2.0 8.0 0.00 0.00 0.00 83 1023.6
20260905040305 51 0 2.0 6.0 0.00 0.00 0.00 83 1023.8
20260905035306 52 40 1.0 6.0 0.00 0.00 0.00 82 1023.7
20260905034805 52 357 2.0 6.0 0.00 0.00 0.00 81 1023.7
20260905034304 52 355 2.0 3.0 0.00 0.00 0.00 81 1023.5
20260905033805 52 39 1.0 5.0 0.00 0.00 0.00 81 1023.5
20260905032805 52 35 1.0 5.0 0.00 0.00 0.00 80 1023.5
20260905032306 52 59 2.0 9.0 0.00 0.00 0.00 79 1023.6
20260905031304 53 17 3.0 7.0 0.00 0.00 0.00 79 1023.5
20260905030805 53 350 2.0 6.0 0.00 0.00 0.00 77 1023.4
20260905030305 54 336 2.0 6.0 0.00 0.00 0.00 76 1023.3
20260905025805 54 354 1.0 3.0 0.00 0.00 0.00 75 1023.2
20260905025306 54 20 2.0 6.0 0.00 0.00 0.00 75 1023.0
20260905024804 55 34 1.0 5.0 0.00 0.00 0.00 74 1022.6
20260905024304 55 23 2.0 5.0 0.00 0.00 0.00 74 1022.5
20260905023805 54 31 1.0 5.0 0.00 0.00 0.00 74 1022.3
20260905022806 55 358 0.0 2.0 0.00 0.00 0.00 74 1022.8
20260905022306 55 355 0.0 2.0 0.00 0.00 0.00 73 1022.5
20260905021304 56 16 1.0 2.0 0.00 0.00 0.00 72 1022.4
20260905020804 56 28 0.0 3.0 0.00 0.00 0.00 71 1022.3
20260905020304 56 355 0.0 2.0 0.00 0.00 0.00 70 1022.5
20260905015806 57 352 1.0 5.0 0.00 0.00 0.00 69 1022.2
20260905014805 57 341 2.0 5.0 0.00 0.00 0.00 67 1022.3
20260905014306 58 344 1.0 3.0 0.00 0.00 0.00 66 1022.2
20260905013804 59 337 2.0 5.0 0.00 0.00 0.00 64 1022.2
20260905013304 59 338 2.0 5.0 0.00 0.00 0.00 63 1022.1
20260905012306 60 14 2.0 6.0 0.00 0.00 0.00 62 1021.9
20260905011804 60 344 1.0 6.0 0.00 0.00 0.00 62 1021.9
20260905011305 60 347 2.0 6.0 0.00 0.00 0.00 62 1022.0
20260905010305 60 9 2.0 5.0 0.00 0.00 0.00 61 1021.7
20260905005804 60 335 1.0 7.0 0.00 0.00 0.00 61 1021.9
20260905005306 60 352 2.0 7.0 0.00 0.00 0.00 62 1021.7
20260905004305 60 342 2.0 7.0 0.00 0.00 0.00 62 1021.6
20260905003305 60 23 1.0 5.0 0.00 0.00 0.00 62 1021.9
20260905002306 60 63 1.0 3.0 0.00 0.00 0.00 62 1021.8
20260905001805 59 341 1.0 3.0 0.00 0.00 0.00 63 1021.7
20260905001306 59 0 2.0 6.0 0.00 0.00 0.00 62 1021.4
20260905000305 59 357 0.0 5.0 0.00 0.00 0.00 63 1021.4
20260904235804 59 351 2.0 6.0 0.00 0.00 0.00 62 1021.3
20260904235306 59 18 2.0 6.0 0.00 0.00 0.00 62 1021.5
20260904234805 59 358 2.0 6.0 0.00 0.00 0.00 62 1021.2
20260904234305 59 1 2.0 6.0 0.00 0.00 0.00 62 1021.2
20260904233805 59 343 1.0 3.0 0.00 0.00 0.00 62 1021.0
20260904233305 59 335 0.0 5.0 0.00 0.00 0.00 63 1021.2
20260904232805 59 353 3.0 8.0 0.00 0.00 0.00 62 1020.9
20260904232306 59 349 0.0 5.0 0.00 0.00 0.00 63 1020.9
20260904231804 59 317 1.0 7.0 0.00 0.00 0.00 62 1021.0
20260904231305 60 352 2.0 6.0 0.00 0.00 0.00 62 1020.7
20260904230805 60 1 2.0 6.0 0.00 0.00 0.00 62 1020.9
20260904230304 60 345 1.0 6.0 0.00 0.00 0.00 61 1020.7
20260904225805 60 329 1.0 3.0 0.00 0.00 0.00 62 1020.6
20260904224805 60 10 1.0 7.0 0.00 0.00 0.00 61 1020.3
20260904224304 60 22 1.0 7.0 0.00 0.00 0.00 61 1020.1
20260904223805 60 356 2.0 8.0 0.00 0.00 0.00 61 1020.1
20260904222805 60 317 1.0 6.0 0.00 0.00 0.00 61 1019.9
20260904222306 60 337 2.0 7.0 0.00 0.00 0.00 60 1019.8
20260904221805 60 33 2.0 7.0 0.00 0.00 0.00 60 1019.7
20260904220805 60 17 1.0 6.0 0.00 0.00 0.00 61 1019.7
20260904220305 60 5 2.0 7.0 0.00 0.00 0.00 61 1019.6
20260904215804 60 1 1.0 3.0 0.00 0.00 0.00 60 1019.7
20260904215305 60 330 1.0 5.0 0.00 0.00 0.00 60 1019.9
20260904213805 60 341 2.0 5.0 0.00 0.00 0.00 58 1019.8
20260904213305 60 25 1.0 6.0 0.00 0.00 0.00 59 1019.9
20260904212806 60 350 3.0 7.0 0.00 0.00 0.00 59 1019.8
20260904212306 60 30 2.0 5.0 0.00 0.00 0.00 60 1019.6
20260904211304 60 341 2.0 7.0 0.00 0.00 0.00 60 1019.5
20260904210805 60 37 2.0 6.0 0.00 0.00 0.00 60 1019.6
20260904210304 60 9 2.0 8.0 0.00 0.00 0.00 60 1019.3
20260904205804 61 12 2.0 5.0 0.00 0.00 0.00 60 1019.4
20260904205306 61 352 3.0 8.0 0.00 0.00 0.00 57 1019.0
20260904204805 61 33 2.0 9.0 0.00 0.00 0.00 59 1018.8
20260904204304 60 44 2.0 8.0 0.00 0.00 0.00 61 1019.0
20260904203805 60 359 4.0 8.0 0.00 0.00 0.00 61 1018.9
20260904201804 61 32 2.0 8.0 0.00 0.00 0.00 60 1019.0
20260904201305 62 348 4.0 9.0 0.00 0.00 0.00 58 1018.5
20260904200805 62 26 3.0 7.0 0.00 0.00 0.00 58 1018.7
20260904200305 61 9 2.0 8.0 0.00 0.00 0.00 61 1018.6
20260904195805 60 56 2.0 8.0 0.00 0.00 0.00 61 1018.6
20260904194805 60 15 3.0 10.0 0.00 0.00 0.00 62 1018.6
20260904194304 60 53 5.0 12.0 0.00 0.00 0.00 62 1018.0
20260904193805 61 336 3.0 13.0 0.00 0.00 0.00 60 1017.9
20260904193305 61 25 4.0 14.0 0.00 0.01 0.00 61 1017.7
20260904192805 60 340 3.0 10.0 0.00 0.01 0.00 63 1017.8
20260904192306 59 29 3.0 12.0 0.00 0.03 0.00 63 1017.7
20260904191804 59 348 4.0 10.0 0.00 0.06 0.00 64 1017.8
20260904191305 58 20 3.0 9.0 0.00 0.08 0.00 65 1017.8
20260904190805 58 29 2.0 9.0 0.00 0.10 0.00 65 1017.5
20260904190305 58 30 2.0 9.0 0.00 0.12 0.00 66 1017.7
20260904185806 58 28 4.0 10.0 0.00 0.14 0.00 66 1017.7
20260904185306 59 353 5.0 10.0 0.00 0.16 0.00 65 1017.8
20260904184804 59 57 3.0 10.0 0.00 0.17 0.00 66 1018.0
20260904184305 59 46 2.0 8.0 0.00 0.18 0.00 69 1017.9
20260904183805 58 46 2.0 9.0 0.00 0.20 0.00 69 1018.0
20260904183305 57 51 1.0 9.0 0.00 0.20 0.00 71 1017.9
20260904182306 57 54 3.0 8.0 0.00 0.21 0.00 69 1018.0
20260904181305 57 3 4.0 10.0 0.00 0.21 0.00 69 1018.1
20260904180805 57 32 3.0 10.0 0.00 0.21 0.00 70 1018.2
20260904180304 57 25 3.0 10.0 0.00 0.21 0.00 70 1018.0
20260904175806 57 4 2.0 9.0 0.00 0.21 0.00 71 1017.7
20260904175305 57 60 3.0 8.0 0.00 0.21 0.00 72 1017.8
20260904174804 56 341 3.0 10.0 0.00 0.21 0.00 75 1018.0
20260904173805 56 48 1.0 7.0 0.00 0.21 0.00 76 1018.0
20260904173305 56 313 3.0 9.0 0.00 0.21 0.00 75 1017.9
20260904172804 56 27 3.0 10.0 0.00 0.21 0.00 75 1017.8
20260904172306 55 19 2.0 7.0 0.00 0.21 0.00 74 1017.9
20260904171806 55 19 2.0 10.0 0.00 0.21 0.00 74 1018.4
20260904170805 55 356 2.0 8.0 0.00 0.21 0.00 73 1018.1
20260904170306 55 56 2.0 8.0 0.00 0.21 0.00 74 1018.0
20260904165805 55 15 2.0 10.0 0.00 0.21 0.00 75 1018.0
20260904165305 55 13 3.0 8.0 0.00 0.21 0.00 74 1017.8
20260904163805 54 35 2.0 6.0 0.00 0.21 0.00 77 1017.8
20260904163305 54 35 1.0 3.0 0.00 0.21 0.00 78 1017.8
20260904162805 53 0 2.0 9.0 0.00 0.21 0.00 79 1017.7
20260904161804 54 347 1.0 7.0 0.00 0.21 0.00 78 1017.4
20260904161304 54 49 1.0 5.0 0.00 0.21 0.00 77 1017.5
20260904160805 53 20 1.0 5.0 0.00 0.21 0.00 77 1017.7
20260904160305 53 1 1.0 3.0 0.00 0.21 0.00 76 1017.6
20260904155804 53 354 1.0 3.0 0.00 0.21 0.00 76 1017.6
20260904155306 53 7 1.0 3.0 0.00 0.21 0.00 75 1017.5
20260904154804 53 17 1.0 5.0 0.00 0.21 0.00 73 1017.3
20260904154306 52 8 1.0 2.0 0.00 0.21 0.00 72 1017.0
20260904153804 52 9 1.0 3.0 0.00 0.21 0.00 71 1017.0
20260904153305 52 0 1.0 3.0 0.00 0.21 0.00 70 1017.0
20260904152804 52 28 1.0 3.0 0.00 0.21 0.00 69 1017.0
20260904152306 52 5 1.0 3.0 0.00 0.21 0.00 68 1016.9
20260904151805 52 339 1.0 3.0 0.00 0.21 0.00 68 1016.9
20260904150805 52 342 1.0 5.0 0.00 0.21 0.00 66 1016.8
20260904150304 52 344 1.0 3.0 0.00 0.21 0.00 66 1016.4
20260904145804 52 31 1.0 5.0 0.00 0.21 0.00 66 1016.4
20260904145306 52 76 1.0 3.0 0.00 0.21 0.00 65 1016.4
20260904144805 52 326 1.0 3.0 0.00 0.21 0.00 65 1016.3
20260904144305 52 344 1.0 5.0 0.00 0.21 0.00 64 1016.3
20260904143804 52 347 2.0 5.0 0.00 0.21 0.00 65 1016.2
20260904143304 51 351 1.0 5.0 0.00 0.21 0.00 65 1016.1
20260904142805 51 355 1.0 3.0 0.00 0.21 0.00 65 1016.2
20260904142306 51 326 1.0 5.0 0.00 0.21 0.00 64 1015.8
20260904141305 51 0 1.0 5.0 0.00 0.21 0.00 64 1015.7
20260904140805 51 336 2.0 5.0 0.00 0.21 0.00 64 1015.5
20260904140304 51 28 1.0 3.0 0.00 0.21 0.00 64 1015.3
20260904135804 51 345 1.0 3.0 0.00 0.21 0.00 65 1015.4
20260904135306 50 346 2.0 5.0 0.00 0.21 0.00 64 1015.1
20260904134805 50 338 2.0 5.0 0.00 0.21 0.00 65 1015.1
20260904134305 50 22 1.0 3.0 0.00 0.21 0.00 66 1015.1
20260904133304 49 19 1.0 3.0 0.00 0.22 0.00 67 1015.1
20260904132805 48 23 1.0 3.0 0.00 0.23 0.00 68 1014.8
20260904132306 48 217 0.0 1.0 0.00 0.24 0.00 70 1015.0
20260904131306 47 217 0.0 1.0 0.00 0.24 0.00 71 1014.9
20260904130304 46 217 0.0 1.0 0.00 0.24 0.00 73 1014.4
20260904125805 46 217 0.0 1.0 0.00 0.24 0.00 73 1014.6
20260904125306 46 217 0.0 0.0 0.00 0.24 0.00 74 1014.4
20260904124805 46 217 0.0 1.0 0.00 0.24 0.00 74 1014.6
20260904124305 46 217 0.0 0.0 0.00 0.24 0.00 74 1014.5
20260904123804 46 217 0.0 0.0 0.00 0.24 0.00 74 1014.3
20260904123305 46 217 0.0 0.0 0.00 0.24 0.00 74 1014.1
20260904122805 46 217 0.0 0.0 0.00 0.24 0.00 74 1014.1
20260904122306 47 217 0.0 0.0 0.00 0.24 0.00 73 1013.9
20260904121306 47 217 0.0 0.0 0.00 0.24 0.00 71 1013.9
20260904120805 48 217 0.0 0.0 0.00 0.24 0.00 71 1013.6
20260904120304 48 217 0.0 0.0 0.00 0.24 0.00 70 1013.5
20260904115306 47 217 0.0 0.0 0.00 0.24 0.00 72 1013.3
20260904114304 48 217 0.0 0.0 0.00 0.24 0.00 70 1013.0
20260904113804 48 217 0.0 0.0 0.00 0.24 0.00 69 1013.1
20260904113305 47 217 0.0 0.0 0.00 0.24 0.00 69 1013.1
20260904112804 47 217 0.0 0.0 0.00 0.24 0.00 69 1013.0
20260904112306 47 217 0.0 0.0 0.00 0.24 0.00 69 1013.1
20260904111304 47 217 0.0 1.0 0.00 0.24 0.00 68 1012.8
20260904110805 46 217 1.0 1.0 0.00 0.24 0.00 70 1012.9
20260904110305 46 217 0.0 0.0 0.00 0.24 0.00 71 1012.8
20260904105306 47 217 0.0 0.0 0.00 0.24 0.00 68 1012.9
20260904104804 47 217 0.0 0.0 0.00 0.24 0.00 67 1012.7
20260904104305 48 217 0.0 1.0 0.00 0.24 0.00 66 1012.8
20260904103805 48 217 0.0 1.0 0.00 0.24 0.00 65 1012.5
20260904102804 48 197 0.0 1.0 0.00 0.24 0.00 65 1012.6
20260904102306 49 177 0.0 1.0 0.00 0.24 0.00 65 1012.4
20260904101806 48 178 0.0 1.0 0.00 0.24 0.00 65 1012.5
20260904100805 48 176 0.0 1.0 0.00 0.24 0.00 67 1012.3
20260904100304 48 176 0.0 1.0 0.00 0.24 0.00 67 1012.5
20260904095805 48 176 0.0 1.0 0.00 0.24 0.00 66 1012.5
20260904095306 48 176 0.0 1.0 0.00 0.24 0.00 66 1012.3
20260904094305 49 176 0.0 1.0 0.00 0.24 0.00 65 1012.5
20260904093805 49 176 0.0 1.0 0.00 0.24 0.00 64 1012.6
20260904093305 49 176 0.0 1.0 0.00 0.24 0.00 64 1012.6
20260904092804 48 176 0.0 0.0 0.00 0.24 0.00 66 1012.8
20260904092306 48 176 0.0 0.0 0.00 0.24 0.00 66 1012.6
20260904091805 49 176 0.0 1.0 0.00 0.24 0.00 65 1012.7
20260904091305 48 176 0.0 1.0 0.00 0.24 0.00 66 1012.8
20260904090305 47 176 0.0 1.0 0.00 0.24 0.00 67 1013.1
20260904085806 48 176 0.0 1.0 0.00 0.24 0.00 66 1012.9
20260904085306 48 176 0.0 0.0 0.00 0.24 0.00 65 1012.9
20260904084805 49 176 0.0 1.0 0.00 0.24 0.00 64 1013.2
20260904084304 49 176 0.0 2.0 0.00 0.24 0.00 64 1013.4
20260904083805 48 175 0.0 1.0 0.00 0.24 0.00 65 1013.7